This demonstration page uses our WeatherBlox Daily Observations layout. Learn more.

Left ArrowRight Arrow

41.12389, -100.76542

Hourly Observations for February 23, 2017

Temp ( °F °C ) Dew Point ( °F °C ) Humidity (%) Winds ( mph kmh ) Pressure ( in mb ) Visibility ( mi km ) Precip ( " mm )
12:53 am 00:53 Mostly Cloudy 38 3.3 33 0.6 83 83 NE 16 26 29.76 1008 10 16 0.00 0.00
1:53 am 01:53 Cloudy 36 2.2 31 -0.6 82 82 NE 18 30 29.76 1008 10 16 0.00 0.00
2:53 am 02:53 Cloudy 36 2.2 31 -0.6 82 82 NNE 20 31 29.74 1007 10 16 0.00 0.00
3:30 am 03:30 Cloudy 36 2.2 31 -0.6 82 82 NE 18 30 29.83 1010 10 16 0.00 0.00
3:53 am 03:53 Cloudy 36 2.2 32 0 86 86 ENE 15 24 29.75 1007 10 16 0.00 0.00
4:53 am 04:53 Cloudy 35 1.7 32 0 89 89 ENE 16 26 29.74 1007 9 14 0.00 0.00
5:53 am 05:53 Cloudy 34 1.1 32 0 92 92 NE 21 33 29.73 1007 10 16 0.00 0.00
6:53 am 06:53 Cloudy 33 0.6 29 -1.7 85 85 ENE 18 30 29.73 1007 10 16 0.00 0.00
7:12 am 07:12 Cloudy 32 0 28 -2 87 87 NE 16 26 29.83 1010 9 14 0.00 0.00
7:53 am 07:53 Cloudy 31 -0.6 28 -2.2 89 89 NE 16 26 29.74 1007 10 16 0.00 0.00
8:06 am 08:06 Cloudy with Mist and Fog 31 -0.6 28 -2.2 89 89 NE 18 30 29.83 1010 2 3 0.00 0.00
8:18 am 08:18 Cloudy with Mist and Fog 30 -1 28 -2 93 93 NE 14 22 29.83 1010 3 5 0.00 0.00
8:53 am 08:53 Cloudy 31 -0.6 28 -2.2 89 89 NE 15 24 29.75 1007 10 16 0.00 0.00
9:50 am 09:50 Cloudy 30 -1 27 -3 86 86 ENE 16 26 29.83 1010 10 16 0.00 0.00
9:53 am 09:53 Cloudy 30 -1.1 27 -2.8 88 88 ENE 20 31 29.74 1007 10 16 0.00 0.00
10:53 am 10:53 Cloudy 30 -1.1 25 -3.9 82 82 NE 20 31 29.72 1007 10 16 0.00 0.00
11:53 am 11:53 Cloudy 30 -1.1 24 -4.4 79 79 NE 18 30 29.70 1006 10 16 0.00 0.00
12:53 pm 12:53 Cloudy 31 -0.6 24 -4.4 76 76 NE 20 31 29.66 1004 10 16 0.00 0.00
1:53 pm 13:53 Cloudy 30 -1.1 23 -5 75 75 NE 18 30 29.68 1005 10 16 0.00 0.00
2:53 pm 14:53 Cloudy with Light Snow 30 -1.1 25 -3.9 82 82 ENE 15 24 29.67 1005 3 4 0.00 0.03
2:58 pm 14:58 Cloudy with Light Snow 30 -1 25 -4 80 80 NE 12 19 29.74 1007 1 2 0.00 0.00
3:10 pm 15:10 Cloudy with Light Snow 30 -1.1 25 -3.9 82 82 NE 15 24 29.74 1007 2 3 0.01 0.25
3:19 pm 15:19 Cloudy with Light Snow 30 -1.1 25 -3.9 82 82 NE 15 24 29.74 1007 4 6 0.01 0.25
3:38 pm 15:38 Cloudy with Light Snow 30 -1 25 -4 80 80 NE 12 19 29.74 1007 5 8 0.00 0.00
3:45 pm 15:45 Cloudy with Light Snow 30 -1.1 25 -3.9 82 82 NE 13 20 29.74 1007 4 6 0.02 0.51
3:53 pm 15:53 Cloudy with Light Snow 30 -1.1 25 -3.9 82 82 NE 16 26 29.68 1005 3 4 0.02 0.51
4:25 pm 16:25 Cloudy with Light Snow 30 -1.1 25 -3.9 82 82 NNE 15 24 29.77 1008 3 5 0.00 0.03
4:53 pm 16:53 Cloudy with Light Wintry Mix 30 -1.1 24 -4.4 79 79 NNE 17 28 29.72 1006 10 16 0.00 0.03
5:16 pm 17:16 Cloudy with Light Snow 29 -1.7 24 -4.4 82 82 NNE 17 28 29.80 1009 2 3 0.00 0.03
5:25 pm 17:25 Cloudy with Light Snow 29 -1.7 24 -4.4 82 82 NNE 17 28 29.80 1009 1 2 0.00 0.03
5:30 pm 17:30 Cloudy with Light Snow 28 -2 25 -4 86 86 NNE 16 26 29.80 1009 2 3 0.00 0.00
5:40 pm 17:40 Cloudy with Light Snow 29 -1.7 24 -4.4 82 82 NNE 17 28 29.80 1009 1 2 0.01 0.25
5:53 pm 17:53 Windy with Snow Likely 29 -1.7 24 -4.4 82 82 NNE 20 31 29.74 1007 1 2 0.01 0.25
6:06 pm 18:06 Cloudy with Light Snow 28 -2.2 24 -4.4 85 85 N 15 24 29.83 1010 1 1 0.01 0.25
6:20 pm 18:20 Cloudy with Light Snow 28 -2.2 24 -4.4 85 85 N 14 22 29.88 1012 1 2 0.01 0.25
6:30 pm 18:30 Cloudy with Light Snow 28 -2 25 -4 86 86 N 12 19 29.85 1011 2 2 0.00 0.00
6:37 pm 18:37 Mostly Cloudy with Light Snow 28 -2 25 -4 86 86 N 9 15 29.85 1011 1 2 0.00 0.00
6:53 pm 18:53 Mostly Cloudy with Light Snow 27 -2.8 24 -4.4 89 89 N 10 17 29.81 1010 1 1 0.03 0.76
7:11 pm 19:11 Mostly Cloudy with Light Snow 27 -2.8 23 -5 85 85 N 12 19 29.88 1012 1 1 0.02 0.51
7:23 pm 19:23 Mostly Cloudy with Light Snow 27 -2.8 23 -5 85 85 N 14 22 29.91 1013 1 1 0.03 0.76
7:32 pm 19:32 Mostly Cloudy with Light Snow 27 -2.8 23 -5 85 85 N 8 13 29.91 1013 1 2 0.04 1.02
7:49 pm 19:49 Cloudy with Light Snow 27 -3 23 -5 86 86 N 10 17 29.91 1013 1 2 0.04 1.02
7:53 pm 19:53 Cloudy with Light Snow 26 -3.3 23 -5 88 88 N 12 19 29.84 1011 1 2 0.05 1.27
8:01 pm 20:01 Cloudy with Light Snow 26 -3.3 23 -5 88 88 N 10 17 29.91 1013 1 2 0.00 0.03
8:08 pm 20:08 Cloudy with Light Snow 27 -3 23 -5 86 86 N 9 15 29.91 1013 2 2 0.00 0.00
8:23 pm 20:23 Cloudy with Light Snow 27 -3 23 -5 86 86 N 10 17 29.91 1013 2 3 0.00 0.00
8:53 pm 20:53 Cloudy with Light Snow 26 -3.3 23 -5 88 88 NNW 8 13 29.85 1011 3 4 0.01 0.25
9:36 pm 21:36 Cloudy with Light Snow 26 -3.3 22 -5.6 84 84 N 17 28 29.91 1013 2 3 0.00 0.03
9:53 pm 21:53 Cloudy with Light Snow 26 -3.3 22 -5.6 84 84 N 13 20 29.85 1011 2 3 0.00 0.03
10:00 pm 22:00 Cloudy with Light Snow 26 -3.3 22 -5.6 84 84 N 16 26 29.91 1013 2 3 0.00 0.03
10:19 pm 22:19 Cloudy with Light Snow 27 -3 21 -6 80 80 N 17 28 29.91 1013 3 5 0.00 0.00
10:30 pm 22:30 Cloudy with Light Snow 25 -4 21 -6 86 86 N 15 24 29.94 1014 3 5 0.00 0.00
10:40 pm 22:40 Cloudy with Light Snow 25 -4 21 -6 86 86 N 15 24 29.94 1014 3 4 0.00 0.00
10:53 pm 22:53 Cloudy with Light Snow 25 -3.9 20 -6.7 81 81 N 16 26 29.87 1011 2 3 0.01 0.25
11:07 pm 23:07 Cloudy with Light Snow 25 -3.9 20 -6.7 81 81 N 16 26 29.94 1014 2 3 0.00 0.03
11:32 pm 23:32 Windy with Snow Likely 24 -4.4 20 -6.7 84 84 N 20 31 29.97 1015 2 3 0.00 0.03
11:53 pm 23:53 Windy with Snow Likely 24 -4.4 19 -7.2 81 81 N 22 35 29.87 1012 1 2 0.00 0.03

Powered by AerisWeather